Weather History for Needles, CA

Change the Weather History Date:

Monday, October 28, 2013

  Actual Average Record
Temperature  
Mean Temperature 72 °F -  
Max Temperature 80 °F 82 °F 96 °F (2003)
Min Temperature 64 °F 55 °F 43 °F (1971)
Cooling Degree Days 6    
Growing Degree Days 22 (Base 50)    
Moisture  
Dew Point 37 °F    
Average Humidity 28    
Maximum Humidity 34    
Minimum Humidity 18    
Precipitation  
Precipitation 0.00 in - - ()
Sea Level Pressure  
Sea Level Pressure 29.61 in    
Wind  
Wind Speed 15 mph (SW)    
Max Wind Speed 26 mph    
Max Gust Speed 34 mph    
Visibility 10 miles    
Events      
Averages and records for this station are not official NWS values.
T = Trace of Precipitation, MM = Missing Value Source: NWS Daily Summary

Daily Weather History Graph

Daily Weather History Graph

Search for Another Location

Airport:

Trip Planner

Search our weather history database for the weather conditions in past years. The results will help you decide how hot, cold, wet, or windy it might be!

Date:

Astronomy

Oct. 28, 2013 Rise Set
Actual Time 6:55 AM PDT 5:48 PM PDT
Civil Twilight 6:29 AM PDT 6:14 PM PDT
Nautical Twilight 6:00 AM PDT 6:43 PM PDT
Astronomical Twilight 5:30 AM PDT 7:13 PM PDT
Moon 1:06 AM PDT (10/28) 2:19 PM PDT (10/28)
Length of Visible Light 11h 44m
Length of Day
10h 52m
Waning Crescent, 33% of the Moon is Illuminated
Oct 28
Waning Crescent
Nov 3
New
Nov 9
First Quarter
Nov 17
Full
Nov 25
Last Quarter

Hourly Weather History & Observations

Time (PDT) Temp. Dew Point Humidity Pressure Visibility Wind Dir Wind Speed Gust Speed Precip Events Conditions
12:56 AM 75.0 °F 28.9 °F 18% 29.52 in 10.0 mi SSW 11.5 mph - N/A   Clear
1:56 AM 72.0 °F 30.9 °F 22% 29.53 in 10.0 mi South 9.2 mph - N/A   Clear
2:56 AM 70.0 °F 30.9 °F 24% 29.53 in 10.0 mi South 12.7 mph - N/A   Clear
3:56 AM 71.1 °F 33.1 °F 25% 29.53 in 10.0 mi SSW 12.7 mph - N/A   Clear
4:56 AM 70.0 °F 35.1 °F 28% 29.54 in 10.0 mi SSW 16.1 mph - N/A   Clear
5:56 AM 69.1 °F 35.1 °F 29% 29.55 in - SW 12.7 mph - N/A   Unknown
6:56 AM 69.1 °F 36.0 °F 30% 29.57 in 10.0 mi SSW 10.4 mph - N/A   Clear
7:56 AM 70.0 °F 37.9 °F 31% 29.59 in 10.0 mi SSW 13.8 mph - N/A   Clear
8:56 AM 72.0 °F 39.9 °F 31% 29.61 in 10.0 mi SSW 12.7 mph 21.9 mph N/A   Clear
9:56 AM 73.0 °F 43.0 °F 34% 29.62 in 10.0 mi SSW 20.7 mph 27.6 mph N/A   Clear
10:56 AM 75.0 °F 45.0 °F 34% 29.63 in 10.0 mi South 21.9 mph 31.1 mph N/A   Clear
11:56 AM 79.0 °F 43.0 °F 28% 29.61 in 10.0 mi SW 18.4 mph 31.1 mph N/A   Mostly Cloudy
12:56 PM 79.0 °F 39.9 °F 25% 29.59 in 10.0 mi SSW 19.6 mph 27.6 mph N/A   Scattered Clouds
1:56 PM 79.0 °F 39.0 °F 24% 29.58 in 10.0 mi SW 26.5 mph 34.5 mph N/A   Partly Cloudy
2:56 PM 79.0 °F 37.9 °F 23% 29.58 in 10.0 mi SW 24.2 mph 34.5 mph N/A   Clear
3:56 PM 77.0 °F 37.9 °F 24% 29.59 in 10.0 mi SW 25.3 mph 31.1 mph N/A   Scattered Clouds
4:56 PM 75.0 °F 37.9 °F 26% 29.60 in 10.0 mi SW 24.2 mph 29.9 mph N/A   Partly Cloudy
5:56 PM 73.0 °F 34.0 °F 24% 29.62 in 10.0 mi WSW 19.6 mph 32.2 mph N/A   Partly Cloudy
6:56 PM 71.1 °F 37.9 °F 30% 29.64 in 10.0 mi SW 17.3 mph 23.0 mph N/A   Clear
7:56 PM 69.1 °F 37.9 °F 32% 29.65 in 10.0 mi WSW 16.1 mph 23.0 mph N/A   Clear
8:56 PM 66.9 °F 35.1 °F 31% 29.66 in 10.0 mi WSW 21.9 mph 28.8 mph N/A   Clear
9:56 PM 66.0 °F 34.0 °F 30% 29.70 in 10.0 mi WSW 16.1 mph - N/A   Clear
10:56 PM 64.0 °F 34.0 °F 33% 29.74 in 10.0 mi WSW 3.5 mph - N/A   Clear
11:56 PM 64.0 °F 32.0 °F 30% 29.75 in 10.0 mi WNW 8.1 mph - N/A   Clear